Погода в Гомеле

Погода в Гомеле : погода сейчас, прогноз погоды и архив. Всё, что Вы хотите узнать о погоде в Гомеле!

Хотите узнать прогноз погоды в Гомеле? Тогда Вам сюда: Погода в Гомеле

Поиск расширенной информации на нашем сайте:

Другие новости

Новости СМИ2

Главная страница сайта

Новости сайта

03.07.2017

Напоминаем, что на нашем специализированном сайте Метеоцентр.Азия вы можете получить высокодетализированные автоматические прогнозы погоды по пунктам России, СНГ и мира в авиационном формате (включающие направление и скорость ветра, видимость, явления погоды, количество и форму облачности, нижнюю и верхнюю границу облачности).


Погода в Гомеле - сегодня

Время (UTC), дата Ветер
(°,м/с) 
Видим.   Явления Облачность Т
(°С)
Тd
(°С)
f(%) Тe
(°С)
Pmin
(гПа)
dP
(гПа)
Po
(мм)
O2
(г/м3)
Тmin Tmax R s Состояние
почвы
18 24.05.18 220 (ЮЗ) 8000 м  гроза, ливневой дождь  10/10 1080 м кучево-дожд. 
[Cb cap]
+16.2 +13.7 85 +24  1019.6  1.3  753  284    +25.2     
21 24.05.18 330 (СЗ) 9000 м  слаб. ливневой дождь, в посл. час гроза  10/10 960 м кучево-дожд. 
[Cb cap]
+16 +13.8 87 +24  1019.8  0.2  754  284           
00 25.05.18 020 (С) 30000 м  {гроза, ливн. осадки}  9/0 средняя, верхняя 
[Ac trans|Ci]
+16.4 +12.7 79 +22  1019.4  -0.4  753  284           
03 25.05.18 030 (СВ) 30000 м    9/0 средняя, верхняя 
[Ac trans|Ci]
+15.5 +12.7 83 +22  1020.2  0.8  754  285         
06 25.05.18 050 (СВ) 22000 м    9/0 средняя, верхняя 
[Ac trans|Ci]
+20.2 +13.9 67 +27  1021.4  1.4  755  280  +15.2       
09 25.05.18 020 (С) 28000 м    8/3 1000 м средняя, верхняя 
[Cu hum|Ac trans|Ci]
+23.7 +12.3 49 +28  1021.9  0.7  755  278           
12 25.05.18 030 (СВ) 35000 м    8/5 1000 м средняя, верхняя 
[Cu hum|Ac trans|Ci]
+25.2 +9 36 +25  1021.4  -0.4  755  277           
15 25.05.18 030 (СВ) 24000 м    6/1 1000 м средняя, верхняя 
[Cu hum|Ac trans|Ci fib]
+25.4 +9.1 36 +25  1021.6  0.2  755  277           
18 25.05.18 050 (СВ) 28000 м    3/0 средняя, верхняя 
[Ac trans|Ci fib]
+21.5 +11.5 53 +25  1022.9  1.1  756  280    +25.9       
21 25.05.18 050 (СВ) 26000 м    ясно 
+17.3 +10.4 64 +20  1025.4  2.2  758  285           
00 26.05.18 050 (СВ) 26000 м    ясно 
+14.4 +8.5 68 +16  1026.9  1.3  759  289           
03 26.05.18 040 (СВ) 30000 м    ясно 
+12.5 +6.1 65 +14  1028.3  1.3  760  292           
06 26.05.18 080 (В) 35000 м    ясно 
+16.2 +5.2 48 +17  1029.4  1.3  761  289  +12.3         
09 26.05.18 100 (В) 3{10}  35000 м    ясно 
+19.5 +4.1 36 +20  1029.7  0.5  761  286           
15 26.05.18 090 (В) 30000 м    1/0 верхняя 
[Ci fib]
+20.8 +2.9 31 +21  1028.2  -1  760  284           
18 26.05.18 110 (В) 30000 м    ясно 
+17.7 +3.3 38 +19  1028.3  -0.1  760  287    +21.5       
21 26.05.18 110 (В) 30000 м    ясно 
+13.4 +3.9 53 +15  1029.6  761  292           
00 27.05.18 070 (В) 20000 м    ясно 
+11.1 +3.7 60 +12  1030  0.3  761  294           
03 27.05.18 090 (В) 21000 м    ясно 
+9.4 +4.1 69 +10  1029.5  -0.6  761  296           
06 27.05.18 140 (ЮВ) 35000 м    ясно 
+16.6 +4.3 44 +17  1029.2  0.1  761  288  +8.9         
09 27.05.18 130 (ЮВ) 23000 м    1/0 верхняя 
[Ci fib]
+20.3 +1.4 28 +20  1028.5  -0.5  760  285           
12 27.05.18 110 (В) 30000 м    3/0 верхняя 
[Ci fib]
+21.8 +3.6 30 +22  1026.7  -1.7  759  283           
15 27.05.18 190 (Ю) 35000 м    1/0 верхняя 
[Ci fib]
+23.4 +3.6 27 +23  1024.8  -1.7  758  281           
18 27.05.18 тихо ()   35000 м    3/0 верхняя 
[Ci fib]
+19 +4.4 38 +19  1024.8  -0.3  757  285    +23.5       
21 27.05.18 тихо ()   18000 м    3/0 верхняя 
[Ci fib]
+14.9 +6.2 56 +15  1025.4  0.4  758  289           
Время (UTC), дата Ветер
(°,м/с) 
Видим.   Явления Облачность Т
(°С)
Тd
(°С)
f(%) Тe
(°С)
Pmin
(гПа)
dP
(гПа)
Po
(мм)
O2
(г/м3)
Тmin Tmax R s Состояние
почвы

Для получения пояснительной информации подведите курсор к названию столбца.

ПОГОДА в Гомеле - архив

Всё, что Вы хотите узнать о погоде в Гомеле - удобно и подробно!

Выберите нужную дату (начиная с 1 января 2015* года) и нажмите кнопку "Найти".
Будут отображены архивные сводки погоды по пункту Гомель, начиная с указанной даты.


Отображать данные в формате CSV (для использования в таблицах Excel)


Внимание! Наш архив погоды предназначен исключительно для личного некоммерческого использования в познавательных целях. Если Вам необходимы официальные справки о состоянии погоды (для производственных, юридических, коммерческих и т.п. целей), обращайтесь в органы Росгидромета.

*Примечание: данная дата относится к архиву по метеостанциям СССР (Россия, СНГ, Балтия).
Архив по метеостанциям Зарубежной Европы и Азии (кроме Китая) хранится 10 дней, по другим регионам земного шара (Китай, Африка, Америка, Австралия, Океания) - 1 день.

Гомель - район местоположения метеостанции


Название, широта, долгота, высота метеостанции:
Гомель (город) 52.4°ш. 30.9°д. 126 м над ур. моря [Беларусь]

Дополнительная информация

В oтличие oт бoльшинства пoгoдных сайтoв мы публикуем пoдрoбную метеoинфoрмацию в детальнoм прoфессиoнальнoм фoрмате.

Характеристики температуры и влажнoсти вoздуха измеряются на высoте 2 м в тени вдали oт зданий и деревьев.
Скoрoсть ветра измеряется на высoте 10 м (на урoвне рoста челoвека скoрoсть ветра ниже в 1.5-2 раза). Если метеoстанция нахoдится в гoрoде или в лесу, тo скoрoсть ветра занижена на 2-4 м/с пo сравнению с oткрытым местoм. Скoрoсть ветра над акватoриями крупных рек и oзёр, а также на вершинах хoлмoв на 2-5 м/с выше, чем в oбычных услoвиях.
Атмoсфернoе давление в разных тoчках местнoсти мoжет значительнo oтличаться oт давления на метеoстанции, в зависимoсти oт услoвий рельефа (при пoдъёме на 10 м давление пoнижается примернo на 1 мм рт.ст.).